Content
SEND FEEDBACK

Daily
Averages
Monthly
Summary
Romania

TIMISOARA, ROMANIA


Home > Europe > Romania
Elevation: 335 feet     Latitude: 45 45N     Longitude: 021 14E

WEATHER
 
SELECT A DAY
Number of Records: 276,596;   Date Range: 7/1/96 - 8/28/14
 
SHARE

PRINT THIS DATA

[ ← Previous Day ]
WEATHER ALMANAC - JANUARY 30, 2014
[ Next Day → ]
[ °C ]   °F
Weather ElementAverageHighLow
Temperature26.7 °F33.8 °F (2:00 pm) (3:30 am)
Dewpoint23.3 °F28.4 °F (4:00 pm) (7:00 pm)
Humidity87 %100 % (6:00 am)75 % (2:00 pm)
Barometer30.13 in30.21 in (10:30 pm)30.04 in (12:30 am)
Wind Speed13.6 mph19.6 mph (12:30 pm)
Weather ElementAverage
Visibility2.5 mi
Wind DirectionE (92.8 °)

Weather ElementTotal
Precipitation---
Heating Degree Days48.1 (Base 65)
Averaged from 47 records on January 30, 2014
WEATHER CONDITIONS BREAKOUT
WIND DIRECTION BREAKOUT
WEATHER BY HOUR - JANUARY 30, 2014
[ °C ]   °F
Local TimeTemperatureDewpointHumidityBarometerVisibilityWind DirectionWind SpeedGust SpeedPrecipitationEventsConditions
12:30 AM26.6 °F24.8 °F93 %30.04 in2.5 miENE (70°)1.2 mphSnowLight Snow
1:00 AM26.6 °F24.8 °F93 %30.04 in2.5 miEast (80°)2.3 mphSnowLight Snow
1:30 AM26.6 °F24.8 °F93 %30.04 in2.8 miESE (110°)5.8 mphSnowLight Snow
2:00 AM26.6 °F24.8 °F93 %30.04 in2.5 miEast (80°)4.6 mphMostly Cloudy
2:30 AM26.6 °F24.8 °F93 %30.06 in2.5 miEast (100°)3.5 mphOvercast
3:00 AM26.6 °F24.8 °F93 %30.06 in2.5 miEast (80°)3.5 mphMostly Cloudy
3:30 AM0.0 °F0.0 °F1.2 miENE (70°)4.6 mph
4:00 AM23.0 °F21.2 °F93 %30.06 in1.6 miEast (90°)5.8 mphFogShallow Fog
4:30 AM21.2 °F19.4 °F93 %30.06 in1.6 miENE (70°)5.8 mphFogShallow Fog
5:00 AM21.2 °F19.4 °F93 %30.09 in5.0 miEast (90°)9.2 mph
5:30 AM19.4 °F17.6 °F93 %30.09 inEast (100°)8.1 mphClear
6:00 AM19.4 °F19.4 °F100 %30.09 inEast (100°)6.9 mphClear
6:30 AM19.4 °F19.4 °F100 %30.09 inEast (90°)9.2 mphClear
7:00 AM21.2 °F19.4 °F93 %30.09 inEast (90°)9.2 mphClear
7:30 AM21.2 °F21.2 °F100 %30.12 inEast (90°)10.4 mphClear
8:00 AM21.2 °F19.4 °F93 %30.12 inEast (90°)10.4 mphClear
8:30 AM23.0 °F21.2 °F93 %30.12 inEast (90°)12.7 mphClear
9:00 AM24.8 °F24.8 °F100 %30.12 inEast (90°)15.0 mphClear
9:30 AM26.6 °F24.8 °F93 %30.15 inEast (100°)16.1 mphClear
10:00 AM26.6 °F24.8 °F93 %30.15 inEast (100°)16.1 mphClear
10:30 AM28.4 °F24.8 °F86 %30.15 inEast (90°)16.1 mphClear
11:00 AM28.4 °F24.8 °F86 %30.15 inEast (100°)16.1 mphClear
11:30 AM30.2 °F24.8 °F80 %30.15 inEast (100°)16.1 mphClear
12:00 PM30.2 °F26.6 °F86 %30.15 inEast (100°)17.3 mphClear
12:30 PM32.0 °F26.6 °F80 %30.15 inEast (100°)19.6 mphClear
1:00 PM32.0 °F26.6 °F80 %30.15 inEast (90°)17.3 mphClear
1:30 PM32.0 °F26.6 °F80 %30.15 inEast (100°)18.4 mphClear
2:00 PM33.8 °F26.6 °F75 %30.15 inEast (90°)18.4 mphClear
2:30 PM33.8 °F26.6 °F75 %30.15 inEast (100°)18.4 mphClear
3:00 PM33.8 °F26.6 °F75 %30.15 inEast (90°)17.3 mphClear
3:30 PM32.0 °F26.6 °F80 %30.15 inEast (90°)15.0 mphClear
4:00 PM33.8 °F28.4 °F81 %30.15 inEast (100°)15.0 mphClear
4:30 PM33.8 °F28.4 °F81 %30.15 inEast (100°)15.0 mphClear
5:00 PM33.8 °F26.6 °F75 %30.15 inEast (100°)15.0 mphClear
5:30 PM30.2 °F24.8 °F80 %30.18 inEast (100°)19.6 mphClear
6:00 PM30.2 °F24.8 °F80 %30.18 inEast (90°)18.4 mphClear
6:30 PM28.4 °F24.8 °F86 %30.18 inEast (90°)18.4 mphClear
7:00 PM28.4 °F23.0 °F80 %30.18 inEast (90°)18.4 mphClear
7:30 PM28.4 °F23.0 °F80 %30.18 inEast (90°)17.3 mphClear
8:00 PM26.6 °F23.0 °F86 %30.18 inEast (90°)19.6 mphClear
8:30 PM26.6 °F23.0 °F86 %30.18 inEast (90°)18.4 mphClear
9:00 PM26.6 °F21.2 °F80 %30.18 inEast (100°)19.6 mphClear
9:30 PM26.6 °F23.0 °F86 %30.18 inEast (90°)19.6 mphClear
10:00 PM26.6 °F23.0 °F86 %30.18 inEast (100°)18.4 mphClear
10:30 PM26.6 °F23.0 °F86 %30.21 inEast (100°)19.6 mphClear
11:00 PM26.6 °F23.0 °F86 %30.21 inEast (100°)19.6 mphClear
11:30 PM26.6 °F23.0 °F86 %30.21 inEast (100°)18.4 mphClear
Hourly data recorded from LRTR, located miles away from Timisoara, Romania







STORIES FROM OUR PARTNERS